Location: Unspecified
(0.0000°N, 0.0000°E)
Time: 14:04:25
(UTC+00:00)

NOSS 3-4 (A) - Pass Details

Date: 10 August 2024
Orbit: 801 x 1411 km, 63.4° (Epoch: 05 September)

Event Time Altitude Azimuth Distance (km) Brightness Sun altitude
Rises 20:55:15 0° 242° (WSW) 3,418 6.8 -40.7°
Reaches altitude 10° 20:59:45 10° 275° (W) 2,402 6.2 -41.7°
Maximum altitude 21:01:24 11° 293° (WNW) 2,290 6.1 -42.1°
Drops below altitude 10° 21:03:03 10° 311° (NW) 2,370 6.1 -42.5°
Sets 21:07:25 0° 345° (NNW) 3,297 6.6 -43.5°
